Volver al catálogo

RADUGA 11

ActivoMilitarGEO
NORAD 13669·PAYLOAD·🇷🇺 Russia

Lanzado Nov 26, 1982 desde Baikonur Cosmodrome

Loading…

TLE

ActualizadoSource: Space-Track

Época: Sep 14, 2026, 12:42 UTC

1 13669U 82113A   26257.52954872 -.00000153  00000-0  00000-0 0  9994
2 13669   9.0325 310.8341 0042862 296.3081  66.3015  0.97709741122412

Sigue RADUGA 11 en tiempo real con AllMySat

Download on the App Store